NSS 12

导读

NSS 12是由欧洲卫星运营商SES公司运营的通信卫星,于北京时间2009年10月29日发射升空。该卫星定位于地球静止轨道,主要覆盖欧洲、非洲和亚洲地区,提供广播电视传输、宽带互联网接入、企业网络等多种通信服务。作为SES卫星 fleet的重要组成部分,NSS 12凭借大容量转发器配置,为用户提供稳定可靠的 connectivity 支持,持续服务全球各类通信需求,是SES在东半球重要的通信基础设施之一。

基本信息
目录编号:
36032
目录名称:
NSS 12
国际标识:
2009-058A
轨道中心:
EARTH
卫星名称:
NSS 12
卫星全名:
--
卫星状态:
在轨 (已飞行6115 天)
发射日期:
2009-10-29 UTC
国别 :
(SES)
星等 :
--
轨道信息
数据来源 国际轨道数据 AOE轨道数据
星历时间 2026-07-27T19:21:08+0800
10小时前
查看轨道信息
2026-07-28T01:00:00+0800
5小时前
查看轨道信息
半长轴 42164.868km 42164.896km
偏心率 0.0005037 0.000506
轨道倾角 0.065° 0.065°
近地点辐角 183.769° 185.145°
升交点赤经 265.307° 264.394°
平近点角 83.342° 167.829°
近地点 35765.492km 35765.423km
远地点 35807.97km 35808.095km
周期 1436.104分钟 1436.105分钟
每日圈数 1.002713 1.002712
详细信息
使用方式:
暂无
2D轨道图
3D轨道图
轨道高度分析图
轨道倾角分析图
轨道综合分析图
查看轨道综合分析图